{"data":{"norad_id":68972,"intl_designator":"2026-099X","name":"STARLINK-37259","alt_names":[],"object_type":"PAYLOAD","status":"ACTIVE","operator":null,"country":"US","launch_date":"2026-05-01","launch_site_code":"AFETR","launch_vehicle":null,"mission":null,"orbit_class":"UNKNOWN","rcs_meters":null,"size_class":null,"mass_kg":null,"dimensions":null,"purposes":["comms"],"wikipedia_slug":null,"has_3d_model":false,"image_url":null,"decayed_at":null,"tle_current":{"epoch":"2026-09-19T19:46:18.049728Z","epoch_age_seconds":77778,"freshness":"FRESH","line1":"1 68972U 26099X   26262.82382002  .00022745  00000+0  68219-3 0  9999","line2":"2 68972  53.1596  78.7385 0000505 102.0956 258.0103 15.34402762 21808","mean_motion":15.34402762,"eccentricity":5.05e-5,"inclination_deg":53.1596,"raan_deg":78.7385,"arg_perigee_deg":102.0956,"mean_anomaly_deg":258.0103,"bstar":0.00068219,"rev_number":2180,"period_min":93.847589150781,"perigee_km":462.34956895579,"apogee_km":463.04049299092,"semimajor_km":6840.8320309734,"source":"CELESTRAK","updated_at":"2026-09-20T09:00:44.055992Z"}}}